TianYi 6 (43158 NORAD) Tracking and Keplerian Element Data

This shows tracking and keplerian element data for the satellite.

Feedback or suggestion? Click here.




ElementValue
Catalog43158
NameTianYi 6
Epoch Orbit37264
Epoch Day285.70178731
Epoch Year2024
RAAN337.0388
Inclination97.2461
Eccentricity0.0004202
Argument of Perigee262.4626
Mean Anonmoly97.6174
Mean Motion15.98746331
Decay Rate0.01551148
L11 43158U 18008D 24285.70178731 .01551148 13607-2 33499-2 0 9997
L22 43158 97.2461 337.0388 0004202 262.4626 97.6174 15.98746331372643



Live tracking and technical data element details for TianYi 6 (NORAD 43158). TianYi 6 can be tracked NOW for your location showing map with azimuth and elevation plus other details from your city location.







IsCatalogInMostPopularTable: catalog: 43158, numindb: 518
Update: records affected: 1



GetName: 43158 TianYi 6

Hit Count: updated at: Thu, 23 Jan 2025 17:27:29 GMT